Terug naar catalogus

FENGYUN 1C DEB

ActiefSSO
NORAD 31314·DEBRIS·🇨🇳 China

Gelanceerd May 10, 1999 vanaf Taiyuan Satellite Launch Center

Loading…

Volgende Passages (komende 24 uur)

TLE

VerouderdSource: Space-Track

Epoch: Sep 1, 2026, 05:03 UTC

1 31314U 99025BPS 26244.21081032  .00000220  00000-0  15911-3 0  9996
2 31314  98.8384 236.3013 0078325 342.3979  17.4477 14.05145367645005

Volg FENGYUN 1C DEB in realtime met AllMySat

Download on the App Store